CW5066 Weather Reports


time (UTC)temp
F
wind
direction
speed
knots
gust
knots
rain 1hr
in
rain 24hr
in
rain mn
in
humidity
%
barometer
mb
20260504050515 42 270 0.9 1.7 0.00 0.00 0.00 42 1017.5
20260504045536 43 0.0 0.9 0.00 0.00 0.00 42 1017.6
20260504044515 43 270 1.7 2.6 0.00 0.00 0.00 42 1017.6
20260504043516 43 270 2.6 3.5 0.00 0.00 0.00 42 1017.8
20260504042515 43 270 2.6 3.5 0.00 0.00 0.00 42 1017.2
20260504041515 43 270 2.6 3.5 0.00 0.00 0.00 42 1017.3
20260504040515 43 248 2.6 6.1 0.00 0.00 0.00 43 1017.3
20260504035535 43 203 2.6 4.3 0.00 0.00 0.00 43 1017.4
20260504034515 43 203 0.9 2.6 0.00 0.00 0.00 42 1017.4
20260504033515 43 203 1.7 3.5 0.00 0.00 0.00 45 1017.5
20260504032515 43 0.0 1.7 0.00 0.00 0.00 44 1015.7
20260504031517 43 270 1.7 2.6 0.00 0.00 0.00 46 1016.3
20260504030517 43 293 0.9 2.6 0.00 0.00 0.00 46 1016.3
20260504025517 43 0 2.6 7.0 0.00 0.00 0.00 47 1015.7
20260504024517 43 0 2.6 7.0 0.00 0.00 0.00 47 1015.5
20260504023517 43 0 2.6 5.2 0.00 0.00 0.00 47 1015.6
20260504022517 43 0 4.3 7.8 0.00 0.00 0.00 46 1015.5
20260504021537 44 0 2.6 5.2 0.00 0.00 0.00 46 1015.2
20260504020517 44 0 3.5 8.7 0.00 0.00 0.00 46 1015.2
20260504015517 44 0 6.1 13.0 0.00 0.00 0.00 47 1015.4
20260504014517 45 0 7.8 13.0 0.00 0.00 0.00 44 1016.2
20260504013517 46 0 4.3 8.7 0.00 0.00 0.00 39 1015.9
20260504012517 47 0 1.7 7.0 0.00 0.00 0.00 38 1016.3
20260504011537 48 0 1.7 6.1 0.00 0.00 0.00 37 1016.2
20260504010517 49 0 2.6 6.1 0.00 0.00 0.00 35 1016.7
20260504005517 51 0 3.5 13.0 0.00 0.00 0.00 33 1017.1
20260504004537 51 0 3.5 8.7 0.00 0.00 0.00 32 1017.2
20260504003516 52 90 6.1 23.5 0.00 0.00 0.00 31 1017.0
20260504002517 53 0 4.3 10.4 0.00 0.00 0.00 31 1017.7
20260504001516 53 0 3.5 11.3 0.00 0.00 0.00 30 1018.0
20260504000517 52 90 2.6 8.7 0.00 0.00 0.00 31 1017.3
20260503235516 50 0 3.5 8.7 0.00 0.00 0.00 32 1016.7
20260503234517 49 0 3.5 9.6 0.00 0.00 0.00 33 1016.9
20260503233517 49 0 5.2 13.0 0.00 0.00 0.00 32 1016.8
20260503232516 50 0 6.1 13.0 0.00 0.00 0.00 31 1017.5
20260503231516 50 0 6.1 14.8 0.00 0.00 0.00 33 1017.5
20260503230516 50 0 7.8 17.4 0.00 0.00 0.00 35 1017.5
20260503225516 53 0 6.1 14.8 0.00 0.00 0.00 29 1017.9
20260503224516 53 0 6.1 14.8 0.00 0.00 0.00 27 1017.7
20260503223516 52 0 6.1 11.3 0.00 0.00 0.00 25 1017.1
20260503222516 52 0 5.2 13.9 0.00 0.00 0.00 25 1017.1
20260503221516 52 0 7.0 13.0 0.00 0.00 0.00 27 1017.3
20260503220516 53 0 5.2 13.0 0.00 0.00 0.00 29 1017.4
20260503215516 51 0 6.1 11.3 0.00 0.00 0.00 27 1017.3
20260503214516 53 68 3.5 9.6 0.00 0.00 0.00 32 1018.3
20260503213516 51 90 6.1 12.2 0.00 0.00 0.00 31 1017.9
20260503212516 52 45 2.6 7.0 0.00 0.00 0.00 28 1017.9
20260503211516 51 68 5.2 13.0 0.00 0.00 0.00 33 1018.0
20260503210516 49 0 5.2 10.4 0.00 0.00 0.00 32 1017.6
20260503205516 49 113 2.6 6.1 0.00 0.00 0.00 32 1017.6
20260503204516 50 90 4.3 13.0 0.00 0.00 0.00 31 1018.3
20260503203516 50 68 4.3 10.4 0.00 0.00 0.00 30 1018.5
20260503202516 50 135 4.3 11.3 0.00 0.00 0.00 30 1018.5
20260503201517 51 90 3.5 10.4 0.00 0.00 0.00 28 1019.4
20260503200516 51 68 5.2 11.3 0.00 0.00 0.00 28 1019.4
20260503195516 50 0 2.6 10.4 0.00 0.00 0.00 29 1019.0
20260503194516 50 0 6.1 17.4 0.00 0.00 0.00 28 1018.9
20260503193516 50 0 6.1 14.8 0.00 0.00 0.00 28 1019.1
20260503192516 52 0 3.5 8.7 0.00 0.00 0.00 27 1019.6
20260503191536 53 68 5.2 13.0 0.00 0.00 0.00 27 1020.4
20260503190516 53 0 1.7 7.8 0.00 0.00 0.00 26 1020.5
20260503185536 52 0 2.6 8.7 0.00 0.00 0.00 27 1020.6
20260503184516 54 0 7.0 13.9 0.00 0.00 0.00 23 1021.3
20260503183536 52 68 7.8 15.6 0.00 0.00 0.00 25 1020.7
20260503182516 51 0 9.6 20.9 0.00 0.00 0.00 23 1020.2
20260503181516 51 0 8.7 16.5 0.00 0.00 0.00 25 1020.2
20260503180515 52 0 6.1 15.6 0.00 0.00 0.00 24 1021.2
20260503175516 50 0 5.2 12.2 0.00 0.00 0.00 27 1020.9
20260503174515 50 0 6.1 13.0 0.00 0.00 0.00 25 1021.1
20260503173516 50 0 6.1 13.9 0.00 0.00 0.00 29 1021.5
20260503172515 49 0 4.3 11.3 0.00 0.00 0.00 30 1021.5
20260503171516 48 0 5.2 12.2 0.00 0.00 0.00 31 1021.1
20260503170516 48 0 5.2 12.2 0.00 0.00 0.00 31 1021.0
20260503150517 42 113 4.3 7.8 0.00 0.00 0.00 39 1020.8
20260503130517 39 0.0 2.6 0.00 0.00 0.00 41 1023.2
20260503110536 41 315 3.5 10.4 0.00 0.00 0.00 38 1024.2
20260503081516 41 0.0 1.7 0.00 0.00 0.00 42 1024.8
20260503080536 41 0.0 1.7 0.00 0.00 0.00 42 1025.1
20260503072516 42 45 1.7 2.6 0.00 0.00 0.00 40 1024.9
20260503071516 42 45 1.7 3.5 0.00 0.00 0.00 40 1025.1
20260503070536 42 45 1.7 3.5 0.00 0.00 0.00 40 1025.1
20260503054516 43 45 2.6 5.2 0.00 0.00 0.00 36 1025.4